TimeAKST,TemperatureF,Dew PointF,Humidity,Sea Level PressureIn,VisibilityMPH,Wind Direction,Wind SpeedMPH,Gust SpeedMPH,PrecipitationIn,Events,Conditions,WindDirDegrees,DateUTC
12:53 AM,-7.1,-11.0,83,30.31,10.0,North,3.5,-,N/A,,Clear,360,2013-11-06 09:53:00
1:53 AM,-7.1,-11.0,83,30.33,10.0,Calm,Calm,-,N/A,,Clear,0,2013-11-06 10:53:00
2:53 AM,-5.1,-9.0,83,30.35,10.0,Calm,Calm,-,N/A,,Clear,0,2013-11-06 11:53:00
3:53 AM,-9.0,-13.0,83,30.38,10.0,Calm,Calm,-,N/A,,Clear,0,2013-11-06 12:53:00
4:53 AM,-9.0,-11.9,87,30.40,10.0,Calm,Calm,-,N/A,,Clear,0,2013-11-06 13:53:00
5:53 AM,-2.9,-8.0,79,30.40,10.0,NNE,6.9,-,N/A,,Clear,30,2013-11-06 14:53:00
6:53 AM,-4.0,-8.0,83,30.41,10.0,North,5.8,-,N/A,,Clear,360,2013-11-06 15:53:00
7:53 AM,1.9,-4.0,76,30.42,10.0,North,6.9,-,N/A,,Partly Cloudy,10,2013-11-06 16:53:00
8:53 AM,1.0,-4.0,79,30.44,10.0,North,3.5,-,N/A,,Mostly Cloudy,350,2013-11-06 17:53:00
9:53 AM,5.0,-0.9,76,30.44,10.0,North,8.1,-,N/A,,Mostly Cloudy,10,2013-11-06 18:53:00
10:53 AM,6.1,-0.0,76,30.45,10.0,North,5.8,-,N/A,,Mostly Cloudy,350,2013-11-06 19:53:00
11:53 AM,8.1,-0.9,67,30.46,10.0,North,10.4,17.3,N/A,,Mostly Cloudy,10,2013-11-06 20:53:00
12:53 PM,7.0,-2.0,67,30.46,10.0,North,10.4,-,N/A,,Scattered Clouds,360,2013-11-06 21:53:00
1:53 PM,7.0,-2.0,67,30.45,10.0,North,5.8,-,N/A,,Partly Cloudy,350,2013-11-06 22:53:00
2:53 PM,6.1,-2.0,69,30.43,10.0,North,6.9,-,N/A,,Partly Cloudy,360,2013-11-06 23:53:00
3:53 PM,5.0,-2.9,70,30.41,10.0,NNE,11.5,-,N/A,,Partly Cloudy,20,2013-11-07 00:53:00
4:53 PM,1.9,-5.1,72,30.40,10.0,North,6.9,-,N/A,,Partly Cloudy,360,2013-11-07 01:53:00
5:53 PM,1.9,-5.1,72,30.39,10.0,North,8.1,-,N/A,,Partly Cloudy,360,2013-11-07 02:53:00
6:53 PM,-2.9,-8.0,79,30.39,10.0,NW,5.8,-,N/A,,Partly Cloudy,320,2013-11-07 03:53:00
7:53 PM,-2.0,-8.0,76,30.38,10.0,WNW,5.8,-,N/A,,Clear,300,2013-11-07 04:53:00
8:53 PM,-4.0,-9.9,76,30.35,10.0,NNW,10.4,-,N/A,,Clear,340,2013-11-07 05:53:00
9:53 PM,-2.9,-6.0,87,30.34,10.0,North,8.1,-,N/A,,Clear,350,2013-11-07 06:53:00
10:53 PM,-4.0,-9.9,76,30.32,10.0,NW,6.9,-,N/A,,Clear,320,2013-11-07 07:53:00
11:53 PM,-5.1,-9.9,80,30.30,10.0,NNW,6.9,-,N/A,,Clear,330,2013-11-07 08:53:00